Location: Emblem
(62.4273°N, 6.4710°E)
Time: 06:27:37
(UTC+02:00)

Transit 2A - Pass Details

Date: 04 March 2024
Orbit: 596 x 956 km, 66.7° (Epoch: 24 April)

Event Time Altitude Azimuth Distance (km) Brightness Sun altitude
Rises 21:18:14 0° 257° (WSW) 2,849 9.6 -22.1°
Reaches altitude 10° 21:20:27 10° 261° (W) 1,962 8.8 -22.4°
Maximum altitude 21:24:47 59° 342° (NNW) 729 6.0 -22.8°
Enters shadow 21:26:37 34° 48° (NE) 1,069 6.6 -23.0°
